This is the latest recevied weather packets stored in our database for station/object N2PUI. If no packets are shown the sender has not sent any weather packets the latest 10 day(s).
| Time | Temp. | Humidity | Pressure | Rain* | Wind** | Luminosity | Snow |
|---|---|---|---|---|---|---|---|
| 1777569525 | 10.56° C | 69% | 1009.4 hPa | 0 mm | - | 150 W/m² | - |
| 1777566495 | 9.44° C | 74% | 1009.4 hPa | 0 mm | - | 228 W/m² | - |
| 1777562848 | 8.33° C | 83% | 1009.4 hPa | 0 mm | - | 233 W/m² | - |
| 1777561638 | 7.78° C | 85% | 1009.4 hPa | 0 mm | - | 152 W/m² | - |
| 1777560421 | 7.78° C | 86% | 1009.4 hPa | 0 mm | - | 196 W/m² | - |
| 1777556173 | 7.78° C | 91% | 1008.7 hPa | 0 mm | - | 123 W/m² | - |
| 1777555869 | 7.78° C | 91% | 1008.9 hPa | 0 mm | - | 154 W/m² | - |
| 1777555564 | 7.78° C | 92% | 1009.1 hPa | 0 mm | - | 152 W/m² | - |
| 1777555261 | 7.22° C | 93% | 1009.1 hPa | 0 mm | - | 135 W/m² | - |
| 1777554958 | 7.22° C | 93% | 1008.9 hPa | 0 mm | - | 176 W/m² | - |
| 1777554655 | 7.22° C | 94% | 1009.3 hPa | 0 mm | - | 134 W/m² | - |
| 1777554351 | 7.22° C | 94% | 1009.1 hPa | 0 mm | - | 96 W/m² | - |
| 1777554049 | 7.22° C | 95% | 1009.3 hPa | 0 mm | - | 141 W/m² | - |
| 1777553744 | 6.67° C | 95% | 1008.9 hPa | 0 mm | - | 126 W/m² | - |
| 1777553138 | 7.22° C | 95% | 1008.9 hPa | 0 mm | - | 118 W/m² | - |
| 1777552528 | 6.67° C | 95% | 1009.1 hPa | 0 mm | - | 101 W/m² | - |
| 1777551619 | 6.67° C | 95% | 1009.1 hPa | 0 mm | - | 98 W/m² | - |
| 1777550710 | 6.67° C | 95% | 1009.3 hPa | 0 mm | - | 31 W/m² | - |
| 1777550406 | 6.67° C | 95% | 1009.3 hPa | 0 mm | - | 28 W/m² | - |
| 1777549495 | 6.67° C | 95% | 1009.3 hPa | 0 mm | - | 62 W/m² | - |
| 1777548281 | 6.67° C | 95% | 1009.1 hPa | 0 mm | - | 42 W/m² | - |
| 1777547978 | 6.67° C | 95% | 1009.2 hPa | 0 mm | - | 38 W/m² | - |
| 1777547068 | 6.67° C | 95% | 1008.8 hPa | 0 mm | - | 24 W/m² | - |
| 1777546766 | 6.67° C | 95% | 1008.9 hPa | 0 mm | - | 33 W/m² | - |
| 1777546462 | 6.67° C | 95% | 1008.6 hPa | 0 mm | - | 27 W/m² | - |
* Rain latest hour (hover to see other rain measurements)
** Current wind speed in m/s (hover to see current wind gust speed)